Погода в Багдарине

Погода в Багдарине : погода сейчас, прогноз погоды и архив. Всё, что Вы хотите узнать о погоде в Багдарине!

Поиск расширенной информации на нашем сайте:

Другие новости

Новости СМИ2

Главная страница сайта

Новости сайта

03.07.2017

Напоминаем, что на нашем специализированном сайте Метеоцентр.Азия вы можете получить высокодетализированные автоматические прогнозы погоды по пунктам России, СНГ и мира в авиационном формате (включающие направление и скорость ветра, видимость, явления погоды, количество и форму облачности, нижнюю и верхнюю границу облачности).


Погода в Багдарине - сегодня

Время (UTC), дата Ветер
(°,м/с) 
Видим.   Явления Облачность Т
(°С)
Тd
(°С)
f(%) Тe
(°С)
Pmin
(гПа)
dP
(гПа)
Po
(мм)
O2
(г/м3)
Тmin Tmax R s Состояние
почвы
03 19.11.17 050 (СВ) 20000 м    10/0 средняя, верхняя 
[Ac lent|Ci sp]
-20.2 -26.2 59 -20  1028.5  0.5  684  299           
06 19.11.17 160 (Ю) 20000 м    4/0 средняя, верхняя 
[Ac lent|Ci fib]
-13.3 -22.9 44 -13  1024.2  -1  683  291           
09 19.11.17 тихо ()   н/о    ясно 
-19.8 -24.1 69 -20  1028.2  0.9  684  299           
12 19.11.17 тихо ()   н/о    ясно 
-23.7 -26.6 77 -24  1030.9  0.7  684  304    -10.8       
15 19.11.17 тихо ()   н/о    8/0 средняя, верхняя 
[Ac trans|Ci fib]
-20.7 -23.6 78 -21  1028.7  -0.7  684  300           
18 19.11.17 130 (ЮВ) н/о    10/0 средняя, верхняя 
[Ac lent|Ci sp]
-20.1 -23.4 75 -20  1026.3  -1.9  682  298           
21 19.11.17 тихо ()   н/о    10/0 средняя 
[As trans]
-22 -24.7 79 -22  1024.5  -2.3  681  300           
00 20.11.17 тихо ()   н/о    10/0 средняя, верхняя 
[Ac lent|Ci fib]
-24.2 -26.9 78 -24  1023.2  -2.2  679  302  -24.2      равномерный
сухой снег
100% 
03 20.11.17 тихо ()   20000 м    10/0 средняя, верхняя 
[Ac lent|Ci sp]
-19.7 -23.4 72 -20  1019.2  -1.6  678  296  -24.3         
06 20.11.17 тихо ()   20000 м    10/0 средняя, верхняя 
[Ac und|Ci sp]
-14.2 -20 61 -14  1014.2  -2.1  676  289           
09 20.11.17 240 (ЮЗ) н/о    10/0 средняя, верхняя 
[Ac lent|Ci fib]
-18.1 -21 78 -18  1015.6  -0.4  676  293           
12 20.11.17 тихо ()   н/о    8/0 средняя, верхняя 
[Ac lent|Ci fib]
-21.8 -24.4 79 -22  1018  0.6  676  298    -13.5       
15 20.11.17 тихо ()   н/о    8/0 средняя 
[As trans]
-23.9 -26.7 78 -24  1019.1  0.1  676  300           
18 20.11.17 тихо ()   н/о    3/0 верхняя 
[Ci fib]
-24.5 -27.4 77 -25  1019.3  0.1  676  301           
21 20.11.17 тихо ()   н/о    4/0 верхняя 
[Ci fib]
-25.1 -28 77 -25  1019.5  0.1  676  302           
00 21.11.17 190 (Ю) н/о    10/0 средняя, верхняя 
[Ac lent|Ci fib]
-25.1 -28.1 76 -26  1020.4  0.8  677  302  -25.7      равномерный
сухой снег
100% 
03 21.11.17 150 (ЮВ) 20000 м    10/0 средняя, верхняя 
[Ac trans|Ci fib]
-17.7 -20.3 80 -22  1017.4  0.5  677  293           
06 21.11.17 310 (СЗ) 20000 м    10/0 средняя, верхняя 
[Ac trans|Ci fib]
-11.2 -21.4 43 -14  1015.2  0.7  678  286           
09 21.11.17 330 (СЗ) н/о    10/0 средняя, верхняя 
[Ac trans|Ci fib]
-13.8 -24.5 40 -16  1018.2  1.7  679  290           
12 21.11.17 330 (СЗ) н/о    10/0 средняя 
[As trans]
-15 -24 46 -17  1019.6  0.7  679  291    -10.6       
15 21.11.17 тихо ()   н/о    8/0 средняя 
[As trans]
-20.8 -25.7 65 -21  1023.1  0.7  680  298           
18 21.11.17 310 (СЗ) н/о    10/0 средняя 
[As trans]
-15.8 -26.7 39 -20  1021.3  0.5  680  293           
21 21.11.17 320 (СЗ) н/о    8/0 средняя 
[As trans]
-20.6 -27.4 54 -21  1023.5  0.1  680  298           
00 22.11.17 200 (Ю) н/о    ясно 
-24.4 -29.3 64 -25  1026.1  0.6  681  303  -24.6      равномерный
сухой снег
100% 
03 22.11.17 300 (СЗ) 20000 м    10/0 средняя, верхняя 
[Ac trans|Ci fib]
-16.6 -29.1 33 -17  1022.7  0.3  681  294  -25.8         
Время (UTC), дата Ветер
(°,м/с) 
Видим.   Явления Облачность Т
(°С)
Тd
(°С)
f(%) Тe
(°С)
Pmin
(гПа)
dP
(гПа)
Po
(мм)
O2
(г/м3)
Тmin Tmax R s Состояние
почвы

Для получения пояснительной информации подведите курсор к названию столбца.

ПОГОДА в Багдарине - архив

Всё, что Вы хотите узнать о погоде в Багдарине - удобно и подробно!

Выберите нужную дату (начиная с 1 января 2015* года) и нажмите кнопку "Найти".
Будут отображены архивные сводки погоды по пункту Багдарин, начиная с указанной даты.


Отображать данные в формате CSV (для использования в таблицах Excel)


Внимание! Наш архив погоды предназначен исключительно для личного некоммерческого использования в познавательных целях. Если Вам необходимы официальные справки о состоянии погоды (для производственных, юридических, коммерческих и т.п. целей), обращайтесь в органы Росгидромета.

*Примечание: данная дата относится к архиву по метеостанциям СССР (Россия, СНГ, Балтия).
Архив по метеостанциям Зарубежной Европы и Азии (кроме Китая) хранится 10 дней, по другим регионам земного шара (Китай, Африка, Америка, Австралия, Океания) - 1 день.

Багдарин - район местоположения метеостанции


Название, широта, долгота, высота метеостанции:
Багдарин 54.5°ш. 113.6°д. 903 м над ур. моря [Российская Федерация]

Дополнительная информация

В oтличие oт бoльшинства пoгoдных сайтoв мы публикуем пoдрoбную метеoинфoрмацию в детальнoм прoфессиoнальнoм фoрмате.

Характеристики температуры и влажнoсти вoздуха измеряются на высoте 2 м в тени вдали oт зданий и деревьев.
Скoрoсть ветра измеряется на высoте 10 м (на урoвне рoста челoвека скoрoсть ветра ниже в 1.5-2 раза). Если метеoстанция нахoдится в гoрoде или в лесу, тo скoрoсть ветра занижена на 2-4 м/с пo сравнению с oткрытым местoм. Скoрoсть ветра над акватoриями крупных рек и oзёр, а также на вершинах хoлмoв на 2-5 м/с выше, чем в oбычных услoвиях.
Атмoсфернoе давление в разных тoчках местнoсти мoжет значительнo oтличаться oт давления на метеoстанции, в зависимoсти oт услoвий рельефа (при пoдъёме на 10 м давление пoнижается примернo на 1 мм рт.ст.).